User: anonymous   Login
Location: Fort Wayne
(41.1310°N, 85.1290°W)
Time: 06:16:20
(UTC-04:00)
Language:

Meteor 2-9 Rocket - Orbit

View from above orbital plane
View from above orbital plane
View from above satellite
View from above satellite

Ground track
Ground track

The orbit data is extracted from the following two-line orbital elements,

1 13719U 82116B   17147.78185528 -.00000008 +00000-0 -10953-4 0  9995
2 13719 081.2556 020.3632 0072565 051.4675 354.0153 14.14604515777484
Epoch (UTC): 27 May 2017 18:45:52
Eccentricity: 0.0072565
inclination: 81.2556°
perigee height: 791 km
apogee height: 896 km
right ascension of ascending node: 20.3632°
argument of perigee: 51.4675°
revolutions per day: 14.14604515
mean anomaly at epoch: 354.0153°
orbit number at epoch: 77748

The dashed part of the orbit path shows where the satellite is in the earth's shadow,  

DLR